TimeMDT,TemperatureF,Dew PointF,Humidity,Sea Level PressureIn,VisibilityMPH,Wind Direction,Wind SpeedMPH,Gust SpeedMPH,PrecipitationIn,Events,Conditions,WindDirDegrees,DateUTC
12:53 AM,55.9,37.0,49,30.04,10.0,Calm,Calm,-,N/A,,Clear,0,2012-09-30 06:53:00
1:53 AM,52.0,36.0,54,30.05,10.0,Calm,Calm,-,N/A,,Clear,0,2012-09-30 07:53:00
2:53 AM,54.0,37.0,53,30.05,10.0,ESE,4.6,-,N/A,,Clear,120,2012-09-30 08:53:00
3:53 AM,50.0,36.0,59,30.06,10.0,East,4.6,-,N/A,,Clear,80,2012-09-30 09:53:00
4:53 AM,50.0,36.0,59,30.06,10.0,Calm,Calm,-,N/A,,Clear,0,2012-09-30 10:53:00
5:53 AM,46.9,35.1,63,30.07,10.0,East,4.6,-,N/A,,Clear,100,2012-09-30 11:53:00
6:53 AM,46.0,35.1,66,30.10,10.0,Calm,Calm,-,N/A,,Clear,0,2012-09-30 12:53:00
7:53 AM,46.9,36.0,66,30.12,10.0,East,3.5,-,N/A,,Clear,90,2012-09-30 13:53:00
8:53 AM,55.9,37.0,49,30.14,10.0,SE,6.9,-,N/A,,Clear,130,2012-09-30 14:53:00
9:53 AM,61.0,37.0,41,30.14,10.0,SSE,6.9,-,N/A,,Clear,160,2012-09-30 15:53:00
10:53 AM,64.0,36.0,35,30.13,10.0,South,3.5,-,N/A,,Clear,190,2012-09-30 16:53:00
11:53 AM,69.1,36.0,30,30.11,10.0,SW,3.5,-,N/A,,Clear,220,2012-09-30 17:53:00
12:53 PM,72.0,36.0,27,30.09,10.0,SSW,5.8,-,N/A,,Partly Cloudy,210,2012-09-30 18:53:00
1:53 PM,75.9,33.1,21,30.05,10.0,WSW,8.1,-,N/A,,Partly Cloudy,240,2012-09-30 19:53:00
2:53 PM,78.1,33.1,19,30.02,10.0,WSW,10.4,-,N/A,,Scattered Clouds,250,2012-09-30 20:53:00
3:53 PM,79.0,32.0,18,30.01,10.0,West,13.8,-,N/A,,Scattered Clouds,270,2012-09-30 21:53:00
4:53 PM,77.0,28.0,17,30.00,10.0,West,11.5,-,N/A,,Scattered Clouds,270,2012-09-30 22:53:00
5:53 PM,77.0,28.9,17,30.00,10.0,SSW,3.5,-,N/A,,Scattered Clouds,200,2012-09-30 23:53:00
6:53 PM,73.9,28.0,18,30.03,10.0,NNE,5.8,-,N/A,,Clear,20,2012-10-01 00:53:00
7:53 PM,68.0,27.0,21,30.05,10.0,North,6.9,-,N/A,,Clear,10,2012-10-01 01:53:00
8:53 PM,63.0,28.0,27,30.05,10.0,NE,3.5,-,N/A,,Clear,40,2012-10-01 02:53:00
9:53 PM,60.1,30.0,32,30.06,10.0,SSW,5.8,-,N/A,,Clear,210,2012-10-01 03:53:00
10:53 PM,57.9,28.9,33,30.06,10.0,East,3.5,-,N/A,,Clear,80,2012-10-01 04:53:00
11:53 PM,57.9,30.9,36,30.05,10.0,ESE,4.6,-,N/A,,Clear,120,2012-10-01 05:53:00